Valladolid Airport, Spain

9:18 PM CEST on April 25, 2017 (GMT +0200)
Villanubla

Weather History for LEVD - May, 2013

Change the Weather History Date:

Tuesday, May 7, 2013

  Actual Average Record
Temperature  
Mean Temperature 60 °F -  
Max Temperature 68 °F - - ()
Min Temperature 51 °F - - ()
Degree Days  
Heating Degree Days 6    
Growing Degree Days 10 (Base 50)    
Moisture  
Dew Point 51 °F    
Average Humidity 73    
Maximum Humidity 94    
Minimum Humidity 56    
Precipitation  
Precipitation 0.00 in - - ()
Sea Level Pressure  
Sea Level Pressure 30.11 in    
Wind  
Wind Speed 9 mph ()    
Max Wind Speed 16 mph    
Max Gust Speed -    
Visibility 6.2 miles    
Events      
T = Trace of Precipitation, MM = Missing Value Source: Averaged Metar Reports

Daily Weather History Graph

Daily Weather History Graph

Search for Another Location

Airport or City:

Trip Planner

Search our weather history database for the weather conditions in past years. The results will help you decide how hot, cold, wet, or windy it might be!

Date:

Astronomy

May. 07, 2013 Rise Set
Actual Time 7:08 AM CEST 9:24 PM CEST
Civil Twilight 6:37 AM CEST 9:55 PM CEST
Nautical Twilight 5:59 AM CEST 10:33 PM CEST
Astronomical Twilight 5:17 AM CEST 11:15 PM CEST
Moon 5:37 AM CEST (5/7) 7:08 PM CEST (5/7)
Length of Visible Light 15h 17m
Length of Day
14h 15m
Waning Crescent, 7% of the Moon is Illuminated
May 7
Waning Crescent
May 10
New
May 18
First Quarter
May 25
Full
May 31
Last Quarter

Hourly Weather History & Observations

Time (CEST) Temp. Dew Point Humidity Pressure Visibility Wind Dir Wind Speed Gust Speed Precip Events Conditions
7:00 AM 51.8 °F 50.0 °F 94% 30.12 in 6.2 mi SW 10.4 mph - N/A   Partly Cloudy
7:30 AM 51.8 °F 50.0 °F 94% 30.12 in 6.2 mi SW 9.2 mph - N/A   Partly Cloudy
8:00 AM 51.8 °F 50.0 °F 94% 30.12 in 6.2 mi SW 8.1 mph - N/A   Partly Cloudy
8:30 AM 51.8 °F 50.0 °F 94% 30.12 in 6.2 mi SW 8.1 mph - N/A   Partly Cloudy
9:00 AM 53.6 °F 50.0 °F 88% 30.12 in 6.2 mi SW 8.1 mph - N/A   Partly Cloudy
9:30 AM 53.6 °F 50.0 °F 88% 30.15 in 6.2 mi WSW 8.1 mph - N/A   Partly Cloudy
10:00 AM 55.4 °F 51.8 °F 88% 30.15 in 6.2 mi WSW 8.1 mph - N/A   Light Drizzle
10:30 AM 55.4 °F 51.8 °F 88% 30.15 in 6.2 mi SW 8.1 mph - N/A   Partly Cloudy
11:00 AM 57.2 °F 51.8 °F 82% 30.15 in 6.2 mi SW 9.2 mph - N/A   Partly Cloudy
11:30 AM 59.0 °F 51.8 °F 77% 30.12 in 6.2 mi SW 9.2 mph - N/A   Partly Cloudy
12:00 PM 60.8 °F 53.6 °F 77% 30.12 in 6.2 mi SW 10.4 mph - N/A   Partly Cloudy
12:30 PM 60.8 °F 53.6 °F 77% 30.15 in 6.2 mi SW 9.2 mph - N/A   Scattered Clouds
1:00 PM 62.6 °F 53.6 °F 72% 30.15 in 6.2 mi SW 12.7 mph - N/A   Scattered Clouds
1:30 PM 62.6 °F 51.8 °F 68% 30.12 in 6.2 mi SSW 10.4 mph - N/A   Scattered Clouds
2:00 PM 64.4 °F 53.6 °F 68% 30.12 in 6.2 mi SSW 9.2 mph - N/A   Mostly Cloudy
2:30 PM 68.0 °F 53.6 °F 60% 30.12 in 6.2 mi SW 10.4 mph - N/A   Mostly Cloudy
3:00 PM 64.4 °F 50.0 °F 59% 30.12 in 6.2 mi WSW 11.5 mph - N/A   Mostly Cloudy
3:30 PM 64.4 °F 53.6 °F 68% 30.12 in 6.2 mi West 12.7 mph - N/A   Scattered Clouds
4:00 PM 64.4 °F 51.8 °F 64% 30.09 in 6.2 mi WSW 15.0 mph - N/A   Scattered Clouds
4:30 PM 66.2 °F 50.0 °F 56% 30.09 in 6.2 mi West 16.1 mph - N/A   Partly Cloudy
5:00 PM 64.4 °F 51.8 °F 64% 30.09 in 6.2 mi West 15.0 mph - N/A   Partly Cloudy
5:30 PM 64.4 °F 51.8 °F 64% 30.09 in 6.2 mi West 13.8 mph - N/A   Partly Cloudy
6:00 PM 64.4 °F 50.0 °F 59% 30.09 in 6.2 mi West 11.5 mph - N/A   Partly Cloudy
6:30 PM 64.4 °F 51.8 °F 64% 30.09 in 6.2 mi West 10.4 mph - N/A   Partly Cloudy
7:00 PM 64.4 °F 51.8 °F 64% 30.06 in 6.2 mi West 9.2 mph - N/A   Partly Cloudy
7:30 PM 64.4 °F 53.6 °F 68% 30.06 in 6.2 mi WSW 5.8 mph - N/A   Scattered Clouds
8:00 PM 62.6 °F 50.0 °F 63% 30.06 in 6.2 mi WSW 10.4 mph - N/A   Scattered Clouds
8:30 PM 62.6 °F 50.0 °F 63% 30.06 in 6.2 mi West 11.5 mph - N/A   Scattered Clouds
9:00 PM 60.8 °F 50.0 °F 68% 30.09 in 6.2 mi West 10.4 mph - N/A   Partly Cloudy
9:30 PM 60.8 °F 50.0 °F 68% 30.09 in 6.2 mi West 10.4 mph - N/A   Scattered Clouds